Flag for Brazil Weather past 2 weeks in Feira de Santana, Bahia, Brazil

Now
77 °F

Passing clouds.


Feels Like: 79 °F
Forecast: 65 / 83 °F
Wind: 10 mph from East

Location: Salvador Aeroporto

Current Time: Jul 30, 2015 at 9:13:39 PM

Latest Report: Jul 30, 2015 at 9:00 PM


Visibility: N/A

Pressure: 30.12 "Hg

Humidity: 65%

Dew point: 64 °F

Location of Feira de SantanaLocation

Historic Weather in Feira de Santana — Graph

°F

Feira de Santana temperature yesterday

Maximum temperature yesterday: 82 °F (at 12:00 PM)
Minimum temperature yesterday: 72 °F (at 5:00 AM)
Average temperature yesterday: 76 °F

Past Weeks' High & Low Weather Summary

 TemperatureHumidityPressure
High82 °F (Jul 18, 11:00 AM)100% (Jul 16, 9:00 AM)30.15 "Hg (Jul 16, 9:00 AM)
Low41 °F (Jul 16, 9:00 AM)51% (Jul 18, 10:00 AM)30.01 "Hg (Jul 25, 3:00 PM)
Average76 °F72%30.08 "Hg
* Reported Jul 15 8:00 PM — Jul 30 8:00 PM, Feira de Santana, Weather by CustomWeather, © 2015

Note: Actual official high and low records may vary slightly from our data, if they occured in-between our weather recording intervals... More about our weather records

Advertising

Feira de Santana weather history for previous 24 hours

 ConditionsComfort  
Time TempWeatherWind HumidityBarometerVisibility
8:00 PM
Thu, Jul 30
77 °FPassing clouds.7 mph69%30.09 "HgN/A
7:00 PM77 °FPassing clouds.10 mph69%30.09 "HgN/A
6:00 PM77 °FPassing clouds.8 mph69%30.09 "HgN/A
5:00 PM77 °FScattered clouds.12 mph69%30.09 "HgN/A
4:00 PM79 °FScattered clouds.12 mph65%30.07 "HgN/A
3:00 PM79 °FScattered clouds.9 mph70%30.07 "HgN/A
2:00 PM79 °FScattered clouds.8 mph70%30.07 "HgN/A
1:00 PM79 °FBroken clouds.10 mph65%30.09 "HgN/A
12:00 PM77 °FPartly sunny.15 mph74%30.12 "HgN/A
11:00 AM77 °FScattered clouds.16 mph74%30.15 "HgN/A
10:00 AM79 °FBroken clouds.12 mph65%30.15 "HgN/A
9:00 AM77 °FScattered clouds.13 mph74%30.12 "HgN/A
8:00 AM75 °FScattered clouds.8 mph78%30.12 "Hg5 mi
7:00 AM73 °FPartly sunny.5 mph83%30.09 "Hg5 mi
6:00 AM72 °FLight rain. Fog.15 mph83%30.09 "Hg3 mi
5:00 AM75 °FPassing clouds.5 mph69%30.07 "HgN/A
4:00 AM75 °FPassing clouds.10 mph69%30.09 "HgN/A
3:00 AM75 °FPassing clouds.8 mph69%30.09 "HgN/A
2:00 AM75 °FPassing clouds.9 mph69%30.09 "HgN/A
1:00 AM75 °FPassing clouds.12 mph69%30.12 "HgN/A
12:00 AM75 °FPassing clouds.15 mph69%30.12 "HgN/A
11:00 PM
Wed, Jul 29
77 °FPassing clouds.9 mph69%30.12 "HgN/A
10:00 PM77 °FPassing clouds.9 mph74%30.12 "HgN/A
9:00 PM77 °FPassing clouds.13 mph69%30.12 "HgN/A
Weather by CustomWeather, © 2015

See weather overviewHow to use our weather pages